Location: Ahausen
(50.4985°N, 8.2722°E)
Time: 07:14:49
(UTC+00:00)

Cosmos 1898 Rocket - Pass Details

Date: 18 September 2020
Orbit: 753 x 784 km, 74.0° (Epoch: 19 October)

Event Time Altitude Azimuth Distance (km) Brightness Sun altitude
Rises 18:24:49 0° 201° (SSW) 3,194 6.8 -8.9°
Reaches altitude 10° 18:27:09 10° 202° (SSW) 2,273 6.1 -9.3°
Maximum altitude 18:32:19 88° 111° (ESE) 762 3.5 -10.1°
Drops below altitude 10° 18:37:32 10° 25° (NNE) 2,295 5.9 -10.9°
Sets 18:39:55 0° 25° (NNE) 3,228 6.6 -11.3°
